Prévision chaque heure sur Domdidier


  Conditions Température Point de rosée PrécipitationProbabilité d'orage Vent Pression UV Index Couverture nuageuse Visibilité
 07:27     19:17   La longueur du jour: 11:50 Aujourd'hui
11:00 17 °
Sensation de: 13.8°
11.8°   0%
7
Max: 29 km/h
1022.5 hPa 81% 20 km
12:00 18 °
Sensation de: 16.5°
11.8°   0%
6
Max: 24 km/h
1022.2 hPa 90% 19 km
13:00 20 °
Sensation de: 18.1°
11.8°   0%
6
Max: 24 km/h
1021.6 hPa 97% 18 km
14:00 20 °
Sensation de: 19.8°
11.7°   0%
5
Max: 23 km/h
1020.8 hPa 100% 18 km
15:00 21 °
Sensation de: 19.5°
11.6°   0%
6
Max: 23 km/h
1020.2 hPa 100% 18 km
16:00 21 °
Sensation de: 19.5°
11.5°   <20%
6
Max: 23 km/h
1020.0 hPa 100% 17 km
17:00 20 °
Sensation de: 19.3°
11.5°   <20%
6
Max: 23 km/h
1020.0 hPa   100% 17 km
18:00 20 °
Sensation de: 19.0°
11.4°   <20%
5
Max: 22 km/h
1020.0 hPa   100% 17 km
19:00 19 °
Sensation de: 18.2°
11.6°   0%
4
Max: 20 km/h
1020.0 hPa   100% 16 km
20:00 18 °
Sensation de: 17.9°
11.7°   0%
3
Max: 17 km/h
1020.4 hPa   100% 17 km
21:00 17 °
Sensation de: 17.7°
11.8°   0%
2
Max: 14 km/h
1020.8 hPa   100% 16 km
22:00 16 °
Sensation de: 17.0°
12.3° 0.3 mm 0%
1
Max: 9 km/h
1021.0 hPa   100% 14 km
23:00 16 °
Sensation de: 17.1°
12.4°   <20%
0
Max: 5 km/h
1021.0 hPa   100% 15 km
 07:28     19:15   La longueur du jour: 11:47 Demain
00:00 16 °
Sensation de: 15.2°
12.3°   0%
2
Max: 8 km/h
1021.0 hPa   98% 15 km
01:00 15 °
Sensation de: 13.8°
12.2° 0.2 mm 0%
3
Max: 15 km/h
1021.0 hPa   90% 15 km
02:00 14 °
Sensation de: 11.0°
11.8°   0%
5
Max: 17 km/h
1021.4 hPa   76% 15 km
03:00 14 °
Sensation de: 10.8°
11.4°   0%
4
Max: 17 km/h
1021.8 hPa   81% 15 km
04:00 13 °
Sensation de: 10.3°
11.3°   0%
4
Max: 16 km/h
1022.0 hPa   91% 14 km
05:00 13 °
Sensation de: 10.3°
11.1°   0%
4
Max: 15 km/h
1022.0 hPa   99% 15 km
06:00 13 °
Sensation de: 10.1°
10.8°   0%
4
Max: 15 km/h
1022.2 hPa   92% 15 km
07:00 13 °
Sensation de: 9.6°
10.7° 0.3 mm 0%
4
Max: 15 km/h
1022.6 hPa   76% 14 km
08:00 13 °
Sensation de: 9.3°
10.4°   0%
4
Max: 14 km/h
1023.4 hPa   55% 16 km
09:00 14 °
Sensation de: 9.4°
10.7°   0%
6
Max: 19 km/h
1023.8 hPa   38% 16 km
10:00 16 °
Sensation de: 11.1°
11.3°   0%
8
Max: 25 km/h
1023.8 hPa 46% 16 km
11:00 18 °
Sensation de: 13.1°
11.6°   0%
10
Max: 28 km/h
1023.8 hPa 18% 16 km
12:00 19 °
Sensation de: 14.0°
11.6°   0%
11
Max: 29 km/h
1023.4 hPa 19% 17 km
13:00 20 °
Sensation de: 14.0°
11.5°   <20%
12
Max: 30 km/h
1023.2 hPa 50% 17 km
14:00 20 °
Sensation de: 14.2°
11.4°   <20%
13
Max: 31 km/h
1023.0 hPa 31% 18 km
15:00 21 °
Sensation de: 14.8°
11.2°   <20%
13
Max: 31 km/h
1023.0 hPa 28% 18 km
16:00 21 °
Sensation de: 15.8°
11.3°   <20%
11
Max: 29 km/h
1023.2 hPa 50% 15 km
17:00 21 °
Sensation de: 16.5°
11.1°   <20%
10
Max: 29 km/h
1023.6 hPa 13% 19 km
18:00 20 °
Sensation de: 15.6°
11.0°   <20%
9
Max: 27 km/h
1024.4 hPa   43% 19 km
19:00 17 °
Sensation de: 13.8°
11.6° 0.3 mm <20%
7
Max: 25 km/h
1025.2 hPa   69% 15 km
20:00 16 °
Sensation de: 12.2°
11.6°   0%
6
Max: 21 km/h
1026.0 hPa   87% 18 km
21:00 15 °
Sensation de: 10.9°
11.4°   0%
6
Max: 20 km/h
1026.6 hPa   85% 18 km
22:00 14 °
Sensation de: 9.8°
11.4°   0%
6
Max: 20 km/h
1027.2 hPa   80% 16 km
23:00 13 °
Sensation de: 9.0°
11.1°   0%
6
Max: 21 km/h
1027.6 hPa   75% 17 km
 07:29     19:13   La longueur du jour: 11:44 Jeudi 30 Sep
00:00 13 °
Sensation de: 8.2°
10.8°   0%
6
Max: 20 km/h
1028.0 hPa   74% 17 km
01:00 13 °
Sensation de: 7.6°
10.6°   0%
6
Max: 20 km/h
1028.4 hPa   77% 16 km
02:00 12 °
Sensation de: 7.2°
10.2°   0%
6
Max: 21 km/h
1028.8 hPa   81% 17 km
03:00 12 °
Sensation de: 6.5°
9.9°   0%
6
Max: 20 km/h
1029.0 hPa   89% 17 km
04:00 12 °
Sensation de: 6.4°
9.6°   0%
6
Max: 19 km/h
1029.0 hPa   95% 16 km
05:00 12 °
Sensation de: 6.9°
9.4°   0%
5
Max: 19 km/h
1029.0 hPa   100% 16 km
06:00 11 °
Sensation de: 6.5°
9.1°   0%
5
Max: 19 km/h
1029.0 hPa   94% 16 km
07:00 11 °
Sensation de: 5.7°
8.7°   0%
5
Max: 18 km/h
1029.4 hPa   72% 16 km
08:00 10 °
Sensation de: 5.2°
8.3°   0%
5
Max: 16 km/h
1029.8 hPa   36% 16 km
09:00 11 °
Sensation de: 6.5°
8.8°   0%
5
Max: 19 km/h
1029.6 hPa   18% 16 km
10:00 14 °
Sensation de: 8.9°
9.9°   0%
6
Max: 22 km/h
1029.2 hPa 22% 16 km